DW4736 Weather Reports


Display with metric or nautical units.
time (UTC)temp
F
wind
direction
speed
MPH
gust
MPH
rain 1hr
in
rain 24hr
in
rain mn
in
humidity
%
barometer
mb
20260510091433 66 104 0.0 0.0 0.00 0.00 0.00 59 1014.2
20260510090932 66 104 0.0 0.0 0.00 0.00 0.00 62 1014.4
20260510090913 66 106 0.0 0.0 0.00 0.00 0.00 60 1014.4
20260510085933 66 94 0.0 0.0 0.00 0.00 0.00 64 1014.5
20260510085429 66 94 0.0 0.0 0.00 0.00 0.00 61 1014.7
20260510084930 66 97 0.0 0.0 0.00 0.00 0.00 62 1014.7
20260510084431 65 92 0.0 0.0 0.00 0.00 0.00 63 1014.6
20260510083932 65 106 0.0 0.0 0.00 0.00 0.00 64 1014.5
20260510083923 65 97 0.0 0.0 0.00 0.00 0.00 63 1014.8
20260510082931 65 97 0.0 0.0 0.00 0.00 0.00 63 1014.7
20260510082429 64 97 0.0 0.0 0.00 0.00 0.00 62 1014.8
20260510081930 64 107 0.0 0.0 0.00 0.00 0.00 67 1014.8
20260510081903 64 107 0.0 0.0 0.00 0.00 0.00 67 1014.9
20260510080939 63 37 0.0 0.0 0.00 0.00 0.00 67 1014.9
20260510080429 63 37 0.0 0.0 0.00 0.00 0.00 67 1015.1
20260510075929 63 257 0.0 0.0 0.00 0.00 0.00 68 1015.1
20260510075428 62 257 0.0 0.0 0.00 0.00 0.00 70 1015.1
20260510074932 62 255 0.0 0.0 0.00 0.00 0.00 70 1015.2
20260510074431 61 257 0.0 0.0 0.00 0.00 0.00 72 1015.0
20260510074028 60 257 0.0 0.0 0.00 0.00 0.00 75 1015.2
20260510073938 61 257 0.0 0.0 0.00 0.00 0.00 72 1015.1
20260510073411 60 255 0.0 0.0 0.00 0.00 0.00 76 1015.2
20260510072429 59 255 0.0 0.0 0.00 0.00 0.00 78 1015.3
20260510071929 59 255 0.0 0.0 0.00 0.00 0.00 77 1015.4
20260510071429 58 255 0.0 0.0 0.00 0.00 0.00 78 1015.4
20260510070931 58 257 0.0 0.0 0.00 0.00 0.00 78 1015.6
20260510070429 58 255 0.0 0.0 0.00 0.00 0.00 78 1015.6
20260510065929 57 255 0.0 0.0 0.00 0.00 0.00 79 1015.7
20260510065429 56 255 0.0 0.0 0.00 0.00 0.00 80 1015.7
20260510064927 56 255 0.0 0.0 0.00 0.00 0.00 81 1015.7
20260510064909 55 255 0.0 0.0 0.00 0.00 0.00 83 1015.8
20260510063927 54 255 0.0 0.0 0.00 0.00 0.00 85 1015.8
20260510063423 54 255 0.0 0.0 0.00 0.00 0.00 86 1015.9
20260510062928 53 255 0.0 0.0 0.00 0.00 0.00 87 1016.0
20260510062427 53 255 0.0 0.0 0.00 0.00 0.00 89 1016.0
20260510061921 52 255 0.0 0.0 0.00 0.00 0.00 91 1016.0
20260510061422 52 255 0.0 0.0 0.00 0.00 0.00 92 1016.1
20260510060921 51 265 0.0 0.0 0.00 0.00 0.00 94 1016.2
20260510060420 51 255 0.0 0.0 0.00 0.00 0.00 95 1016.2
20260510060413 50 255 0.0 0.0 0.00 0.00 0.00 96 1016.2
20260510055420 49 255 0.0 0.0 0.00 0.00 0.00 96 1016.2
20260510054919 49 255 0.0 0.0 0.00 0.00 0.00 96 1016.2
20260510054420 49 255 0.0 0.0 0.00 0.00 0.00 96 1016.3
20260510053919 49 255 0.0 0.0 0.00 0.00 0.00 97 1016.3
20260510053418 49 312 0.0 0.0 0.00 0.00 0.00 97 1016.4
20260510053353 48 312 0.0 0.0 0.00 0.00 0.00 97 1016.4
20260510052416 48 312 0.0 0.0 0.00 0.00 0.00 97 1016.4
20260510051915 47 312 0.0 0.0 0.00 0.00 0.00 97 1016.3
20260510051414 47 312 0.0 0.0 0.00 0.00 0.00 97 1016.3
20260510050912 47 312 0.0 0.0 0.00 0.00 0.00 97 1016.4
20260510050415 46 312 0.0 0.0 0.00 0.00 0.00 97 1016.4
20260510050351 45 312 0.0 0.0 0.00 0.00 0.00 97 1016.5
20260510045412 45 312 0.0 0.0 0.00 0.00 0.00 97 1016.6
20260510044911 45 312 0.0 0.0 0.00 0.00 0.00 97 1016.6
20260510044412 44 312 0.0 0.0 0.00 0.00 0.00 97 1016.6
20260510043911 44 312 0.0 0.0 0.00 0.00 0.00 97 1016.6
20260510043412 44 312 0.0 0.0 0.00 0.00 0.00 97 1016.5
20260510042913 44 312 0.0 0.0 0.00 0.00 0.00 97 1016.6
20260510042414 43 312 0.0 0.0 0.00 0.00 0.00 97 1016.8
20260510041911 43 312 0.0 0.0 0.00 0.00 0.00 97 1016.9
20260510041411 43 312 0.0 0.0 0.00 0.00 0.00 97 1017.0
20260510041349 43 312 0.0 0.0 0.00 0.00 0.00 97 1017.0
20260510040617 42 312 0.0 0.0 0.00 0.00 0.00 97 1016.9
20260510035415 42 312 0.0 0.0 0.00 0.00 0.00 97 1016.9
20260510034917 42 312 0.0 0.0 0.00 0.00 0.00 97 1016.8
20260510034439 42 312 0.0 0.0 0.00 0.00 0.00 97 1016.6
20260510034420 42 312 0.0 0.0 0.00 0.00 0.00 97 1016.7
20260510033410 42 312 0.0 0.0 0.00 0.00 0.00 97 1016.8
20260510032909 42 312 0.0 0.0 0.00 0.00 0.00 97 1016.8
20260510032843 42 312 0.0 0.0 0.00 0.00 0.00 97 1016.8
20260510032404 42 312 0.0 0.0 0.00 0.00 0.00 97 1016.8
20260510031408 43 312 0.0 0.0 0.00 0.00 0.00 97 1016.8
20260510030907 42 312 0.0 0.0 0.00 0.00 0.00 97 1016.8
20260510030432 43 312 0.0 0.0 0.00 0.00 0.00 97 1016.9
20260510030408 43 312 0.0 0.0 0.00 0.00 0.00 97 1016.8
20260510025406 43 312 0.0 0.0 0.00 0.00 0.00 97 1016.8
20260510024906 43 312 0.0 0.0 0.00 0.00 0.00 97 1016.7
20260510024403 43 312 0.0 0.0 0.00 0.00 0.00 97 1016.7
20260510023904 43 312 0.0 0.0 0.00 0.00 0.00 97 1016.9
20260510023404 43 312 0.0 0.0 0.00 0.00 0.00 97 1016.9
20260510023326 43 312 0.0 0.0 0.00 0.00 0.00 97 1016.9
20260510022405 43 312 0.0 0.0 0.00 0.00 0.00 96 1017.0
20260510021901 43 312 0.0 0.0 0.00 0.00 0.00 96 1017.2
20260510021848 43 312 0.0 0.0 0.00 0.00 0.00 96 1017.3
20260510020903 43 312 0.0 0.0 0.00 0.00 0.00 96 1017.4
20260510020403 43 312 0.0 0.0 0.00 0.00 0.00 96 1017.5
20260510015902 43 312 0.0 0.0 0.00 0.00 0.00 96 1017.4
20260510015404 43 312 0.0 0.0 0.00 0.00 0.00 97 1017.6
20260510014902 44 312 0.0 0.0 0.00 0.00 0.00 97 1017.6
20260510014402 43 312 0.0 0.0 0.00 0.00 0.00 96 1017.7
20260510014341 43 312 0.0 0.0 0.00 0.00 0.00 97 1017.6
20260510013404 43 312 0.0 0.0 0.00 0.00 0.00 96 1017.7
20260510012902 43 312 0.0 0.0 0.00 0.00 0.00 96 1017.8
20260510012402 42 312 0.0 0.0 0.00 0.00 0.00 96 1017.7
20260510011902 42 312 0.0 0.0 0.00 0.00 0.00 96 1017.8
20260510011401 42 312 0.0 0.0 0.00 0.00 0.00 96 1017.8
20260510010902 42 312 0.0 0.0 0.00 0.00 0.00 96 1017.9
20260510010406 42 312 0.0 0.0 0.00 0.00 0.00 96 1017.9
20260510005904 42 312 0.0 0.0 0.00 0.00 0.00 96 1017.9
20260510005405 42 312 0.0 0.0 0.00 0.00 0.00 96 1017.9
20260510005057 42 312 0.0 0.0 0.00 0.00 0.00 96 1018.0
20260510003904 42 312 0.0 0.0 0.00 0.00 0.00 96 1018.3
20260510003403 42 312 0.0 0.0 0.00 0.00 0.00 96 1018.3
20260510002901 42 312 0.0 0.0 0.00 0.00 0.00 96 1018.4
20260510002405 42 312 0.0 0.0 0.00 0.00 0.00 96 1018.4
20260510001904 42 312 0.0 0.0 0.00 0.00 0.00 96 1018.5
20260510001403 42 312 0.0 0.0 0.00 0.00 0.00 96 1018.6
20260510000903 42 312 0.0 0.0 0.00 0.00 0.00 96 1018.6
20260510000519 42 312 0.0 0.0 0.00 0.00 0.00 96 1018.7
20260510000403 42 312 0.0 0.0 0.00 0.00 0.00 96 1018.6
20260509235400 42 312 0.0 0.0 0.00 0.00 0.00 96 1018.8
20260509234902 42 312 0.0 0.0 0.00 0.00 0.00 96 1018.8
20260509234557 42 312 0.0 0.0 0.00 0.00 0.00 96 1019.0
20260509233400 42 312 0.0 0.0 0.00 0.00 0.00 96 1018.8
20260509232858 42 312 0.0 0.0 0.00 0.00 0.00 96 1018.9
20260509232355 42 312 0.0 0.0 0.00 0.00 0.00 96 1018.9
20260509231906 42 312 0.0 0.0 0.00 0.00 0.00 96 1018.8
20260509231351 42 312 0.0 0.0 0.00 0.00 0.00 96 1018.9
20260509231309 42 312 0.0 0.0 0.00 0.00 0.00 96 1018.9
20260509230354 42 312 0.0 0.0 0.00 0.00 0.00 96 1019.0
20260509225850 42 312 0.0 0.0 0.00 0.00 0.00 96 1019.0
20260509225822 43 312 0.0 0.0 0.00 0.00 0.00 96 1019.1
20260509224849 43 312 0.0 0.0 0.00 0.00 0.00 95 1019.2
20260509224341 43 312 0.0 0.0 0.00 0.00 0.00 95 1019.1
20260509223843 43 312 0.0 0.0 0.00 0.00 0.00 95 1019.1
20260509223343 43 312 0.0 0.0 0.00 0.00 0.00 95 1019.1
20260509223048 43 312 0.0 0.0 0.00 0.00 0.00 95 1019.1
20260509221839 43 312 0.0 0.0 0.00 0.00 0.00 95 1019.2
20260509221750 43 312 0.0 0.0 0.00 0.00 0.00 95 1019.2
20260509220839 43 312 0.0 0.0 0.00 0.00 0.00 95 1019.1
20260509220353 44 312 0.0 0.0 0.00 0.00 0.00 95 1019.2
20260509215839 44 312 0.0 0.0 0.00 0.00 0.00 95 1019.2
20260509215339 44 312 0.0 0.0 0.00 0.00 0.00 95 1019.3
20260509214837 44 312 0.0 0.0 0.00 0.00 0.00 95 1019.3
20260509214831 44 312 0.0 0.0 0.00 0.00 0.00 95 1019.3
20260509213836 44 312 0.0 0.0 0.00 0.00 0.00 95 1019.4
20260509213412 44 312 0.0 0.0 0.00 0.00 0.00 95 1019.4
20260509213346 44 312 0.0 0.0 0.00 0.00 0.00 95 1019.4
20260509213318 44 312 0.0 0.0 0.00 0.00 0.00 95 1019.4
20260509211842 45 312 0.0 0.0 0.00 0.00 0.00 94 1019.3
20260509211337 45 312 0.0 0.0 0.00 0.00 0.00 94 1019.3
20260509210835 45 312 0.0 0.0 0.00 0.00 0.00 94 1019.4
20260509210339 45 312 0.0 0.0 0.00 0.00 0.00 94 1019.3
20260509205834 45 312 0.0 0.0 0.00 0.00 0.00 94 1019.4
20260509205333 45 312 0.0 0.0 0.00 0.00 0.00 94 1019.3
20260509204832 46 312 0.0 0.0 0.00 0.00 0.00 94 1019.5
20260509204333 46 312 0.0 0.0 0.00 0.00 0.00 94 1019.5
20260509203832 46 312 0.0 0.0 0.00 0.00 0.00 94 1019.5
20260509203334 46 312 0.0 0.0 0.00 0.00 0.00 94 1019.4
20260509202832 46 312 0.0 0.0 0.00 0.00 0.00 93 1019.5
20260509202331 46 312 0.0 0.0 0.00 0.00 0.00 93 1019.5
20260509201831 47 312 0.0 0.0 0.00 0.00 0.00 93 1019.4
20260509201329 47 312 0.0 0.0 0.00 0.00 0.00 93 1019.3
20260509200831 47 312 0.0 0.0 0.00 0.00 0.00 93 1019.4
20260509200335 47 312 0.0 0.0 0.00 0.00 0.00 93 1019.5
20260509200030 47 312 0.0 0.0 0.00 0.00 0.00 93 1019.3
20260509194830 47 312 0.0 0.0 0.00 0.00 0.00 92 1019.3
20260509194332 47 312 0.0 0.0 0.00 0.00 0.00 92 1019.2
20260509193832 48 312 0.0 0.0 0.00 0.00 0.00 92 1019.1
20260509193329 48 312 0.0 0.0 0.00 0.00 0.00 91 1019.2
20260509192829 48 312 0.0 0.0 0.00 0.00 0.00 91 1019.2
20260509192817 49 312 0.0 0.0 0.00 0.00 0.00 91 1019.3
20260509191835 49 312 0.0 0.0 0.00 0.00 0.00 91 1019.2
20260509191334 49 312 0.0 0.0 0.00 0.00 0.00 90 1019.1
20260509190834 49 312 0.0 0.0 0.00 0.00 0.00 90 1019.1
20260509190816 50 312 0.0 0.0 0.00 0.00 0.00 90 1019.1
20260509190808 50 312 0.0 0.0 0.00 0.00 0.00 89 1019.2
20260509185326 51 312 0.0 0.0 0.00 0.00 0.00 89 1019.1
20260509184828 51 312 0.0 0.0 0.00 0.00 0.00 88 1019.1
20260509184744 51 312 0.0 0.0 0.00 0.00 0.00 87 1019.1
20260509183826 52 312 0.0 0.0 0.00 0.00 0.00 87 1019.0
20260509183326 52 312 0.0 0.0 0.00 0.00 0.00 86 1019.0
20260509182821 53 312 0.0 0.0 0.00 0.00 0.00 85 1018.9
20260509182756 53 312 0.0 0.0 0.00 0.00 0.00 84 1018.9
20260509181821 54 312 0.0 0.0 0.00 0.00 0.00 83 1018.8
20260509181322 54 312 0.0 0.0 0.00 0.00 0.00 82 1018.9
20260509180818 54 312 0.0 0.0 0.00 0.00 0.00 81 1018.9
20260509180320 55 312 0.0 0.0 0.00 0.00 0.00 80 1018.9
20260509175819 55 312 0.0 0.0 0.00 0.00 0.00 79 1018.9
20260509175319 56 312 0.0 0.0 0.00 0.00 0.00 78 1018.8
20260509174819 56 312 0.0 0.0 0.00 0.00 0.00 77 1018.9
20260509174319 57 312 0.0 0.0 0.00 0.00 0.00 75 1018.9
20260509173817 57 312 0.0 0.0 0.00 0.00 0.00 74 1018.9
20260509173320 58 312 0.0 0.0 0.00 0.00 0.00 73 1018.9
20260509172819 58 312 0.0 0.0 0.00 0.00 0.00 72 1019.0
20260509172323 59 312 0.0 0.0 0.00 0.00 0.00 70 1019.0
20260509171815 59 312 0.0 0.0 0.00 0.00 0.00 68 1019.0
20260509171314 59 312 0.0 0.0 0.00 0.00 0.00 69 1019.0
20260509170817 60 312 0.0 0.0 0.00 0.00 0.00 67 1019.1
20260509170445 61 312 0.0 0.0 0.00 0.00 0.00 67 1019.1
20260509170358 60 312 0.0 0.0 0.00 0.00 0.00 65 1019.2
20260509165312 61 312 0.0 0.0 0.00 0.00 0.00 64 1019.2
20260509164816 61 312 0.0 0.0 0.00 0.00 0.00 62 1019.2
20260509164313 61 312 0.0 0.0 0.00 0.00 0.00 63 1019.2
20260509163812 61 312 0.0 0.0 0.00 0.00 0.00 63 1019.2
20260509163329 61 312 0.0 0.0 0.00 0.00 0.00 61 1019.2
20260509163314 61 312 0.0 0.0 0.00 0.00 0.00 61 1019.2
20260509162311 61 312 0.0 0.0 0.00 0.00 0.00 60 1019.2
20260509162010 62 312 0.0 0.0 0.00 0.00 0.00 61 1019.3
20260509160812 62 312 0.0 0.0 0.00 0.00 0.00 62 1019.3
20260509160407 62 312 0.0 0.0 0.00 0.00 0.00 61 1019.4
20260509160330 62 312 0.0 0.0 0.00 0.00 0.00 62 1019.3
20260509155311 63 312 0.0 0.0 0.00 0.00 0.00 62 1019.3
20260509154810 63 312 0.0 0.0 0.00 0.00 0.00 62 1019.4
20260509154311 63 310 0.0 0.0 0.00 0.00 0.00 63 1019.4
20260509153810 63 310 0.0 0.0 0.00 0.00 0.00 62 1019.5
20260509153311 63 310 0.0 0.0 0.00 0.00 0.00 60 1019.4
20260509152828 63 310 0.0 0.0 0.00 0.00 0.00 62 1019.5
20260509152813 63 310 0.0 0.0 0.00 0.00 0.00 60 1019.5
20260509151812 63 255 0.0 0.0 0.00 0.00 0.00 64 1019.6
20260509151313 62 255 0.0 0.0 0.00 0.00 0.00 60 1019.6
20260509150813 62 255 0.0 0.0 0.00 0.00 0.00 61 1019.7
20260509150747 62 255 0.0 0.0 0.00 0.00 0.00 62 1019.7
20260509145811 63 255 0.0 0.0 0.00 0.00 0.00 62 1019.6
20260509145312 63 255 0.0 0.0 0.00 0.00 0.00 62 1019.6
20260509144814 62 255 0.0 0.0 0.00 0.00 0.00 61 1019.6
20260509144315 63 255 0.0 0.0 0.00 0.00 0.00 60 1019.7
20260509143814 63 255 0.0 0.0 0.00 0.00 0.00 61 1019.7
20260509143321 63 295 0.0 0.0 0.00 0.00 0.00 63 1019.7
20260509142820 63 290 0.0 0.0 0.00 0.00 0.00 58 1019.6
20260509141812 64 257 0.0 0.0 0.00 0.00 0.00 64 1019.9
20260509141757 62 257 0.0 0.0 0.00 0.00 0.00 63 1019.9
20260509140813 61 255 0.0 0.0 0.00 0.00 0.00 62 1020.0
20260509140751 61 255 0.0 0.0 0.00 0.00 0.00 64 1020.0
20260509135814 60 255 0.0 0.0 0.00 0.00 0.00 65 1020.1
20260509135314 60 255 0.0 0.0 0.00 0.00 0.00 68 1020.2
20260509134811 60 255 0.0 0.0 0.00 0.00 0.00 64 1020.2
20260509134311 60 255 0.0 0.0 0.00 0.00 0.00 63 1020.3
20260509134242 61 255 0.0 0.0 0.00 0.00 0.00 62 1020.3
20260509133313 62 255 0.0 0.0 0.00 0.00 0.00 62 1020.4
20260509132813 62 272 0.0 0.0 0.00 0.00 0.00 65 1020.3
20260509132325 60 272 0.0 0.0 0.00 0.00 0.00 65 1020.4
20260509132309 61 272 0.0 0.0 0.00 0.00 0.00 70 1020.3
20260509131308 61 269 0.0 0.0 0.00 0.00 0.00 65 1020.5
20260509130807 61 257 0.0 0.0 0.00 0.00 0.00 65 1020.5
20260509130307 62 257 0.0 0.0 0.00 0.00 0.00 63 1020.4
20260509125810 62 257 0.0 0.0 0.00 0.00 0.00 67 1020.5
20260509125309 62 257 0.0 0.0 0.00 0.00 0.00 63 1020.5
20260509124806 62 255 0.0 0.0 0.00 0.00 0.00 67 1020.6
20260509124304 61 299 0.0 0.0 0.00 0.00 0.00 64 1020.5
20260509123806 61 317 0.0 0.0 0.00 0.00 0.00 66 1020.7
20260509123746 61 317 0.0 0.0 0.00 0.00 0.00 65 1020.8
20260509122804 60 317 0.0 0.0 0.00 0.00 0.00 64 1020.7
20260509122523 60 317 0.0 0.0 0.00 0.00 0.00 64 1020.8
20260509121303 61 312 0.0 0.0 0.00 0.00 0.00 69 1020.8
20260509120805 60 312 0.0 0.0 0.00 0.00 0.00 67 1020.9
20260509120302 60 312 0.0 0.0 0.00 0.00 0.00 68 1020.9
20260509115805 60 312 0.0 0.0 0.00 0.00 0.00 65 1020.9
20260509115306 60 312 0.0 0.0 0.00 0.00 0.00 67 1021.0
20260509114805 60 312 0.0 0.0 0.00 0.00 0.00 67 1020.9
20260509114303 60 312 0.0 0.0 0.00 0.00 0.00 67 1021.0
20260509114012 60 312 0.0 0.0 0.00 0.00 0.00 66 1021.0
20260509112829 60 312 0.0 0.0 0.00 0.00 0.00 66 1020.9
20260509112822 60 312 0.0 0.0 0.00 0.00 0.00 67 1021.0
20260509112802 60 312 0.0 0.0 0.00 0.00 0.00 68 1021.0
20260509111301 61 309 0.0 0.0 0.00 0.00 0.00 66 1021.0
20260509110802 60 309 0.0 0.0 0.00 0.00 0.00 71 1021.0
20260509110756 59 309 0.0 0.0 0.00 0.00 0.00 67 1021.1
20260509105956 59 309 0.0 0.0 0.00 0.00 0.00 71 1021.2
20260509104758 59 309 0.0 0.0 0.00 0.00 0.00 68 1021.2
20260509104255 59 309 0.0 0.0 0.00 0.00 0.00 68 1021.2
20260509103755 59 309 0.0 0.0 0.00 0.00 0.00 66 1021.2
20260509103255 59 309 0.0 0.0 0.00 0.00 0.00 65 1021.2
20260509103235 59 317 0.0 0.0 0.00 0.00 0.00 64 1021.1
20260509102252 60 49 0.0 0.0 0.00 0.00 0.00 65 1021.1
20260509101751 60 49 0.0 0.0 0.00 0.00 0.00 66 1021.2
20260509101252 60 316 0.0 0.0 0.00 0.00 0.00 67 1021.2
20260509100751 61 329 0.0 0.0 0.00 0.00 0.00 70 1021.2
20260509100248 61 329 0.0 0.0 0.00 0.00 0.00 71 1021.3
20260509095749 59 329 0.0 0.0 0.00 0.00 0.00 69 1021.3
20260509095247 58 329 0.0 0.0 0.00 0.00 0.00 66 1021.3
20260509094744 58 329 0.0 0.0 0.00 0.00 0.00 68 1021.5
20260509094736 58 329 0.0 0.0 0.00 0.00 0.00 71 1021.5
20260509093743 57 329 0.0 0.0 0.00 0.00 0.00 63 1021.5
20260509093241 58 329 0.0 0.0 0.00 0.00 0.00 66 1021.5
20260509092739 58 329 0.0 0.0 0.00 0.00 0.00 65 1021.5
20260509092240 57 329 0.0 0.0 0.00 0.00 0.00 68 1021.5